[[{"header":{"parameterUnit":"m.s-1","parameterCategory":1,"la1":30.2991,"la2":30.254,"lo1":-89.0895,"lo2":-89.0444,"dy":0.0017,"dx":0.0017,"nx":28,"ny":28,"refTime":"2024-06-16T09:00:00:Z","depth":0,"parameterNumber":2,"parameterNumberName":"U-component_of_WINDS"},"data":[0,0,0,0,0,0,0,0,0,0,0,0,0,0,0,0,0,0,0,0,0,0,0,0,0,0,0,0,0,0,0,0,0,0,0,0,0,0,0,0,0,0,0,0,0,0,0,0,0,0,0,0,0,0,0,0,0,0,0.3436,0.3437,0,0.3498,0.3499,0.3499,0.3486,0.3484,0.3483,0.3482,0.3542,0.3544,0.3547,0,0,0,0,0,0,0,0,0,0,0,0,0,0.3302,0.3305,0.3436,0.3437,0.3438,0.3498,0.3499,0.35,0.3486,0.3484,0.3483,0.3482,0.3541,0.3544,0.3547,0,0,0,0,0,0,0,0,0,0,0,0,0,0.3362,0.3306,0.3436,0.3438,0.3439,0.3498,0.3499,0.35,0.3486,0.3484,0.3483,0.3481,0.354,0.3544,0.3548,0.3607,0,0,0.356,0.3562,0,0,0,0,0,0,0,0,0.3359,0.3367,0.3437,0.3438,0.3439,0.3482,0.3473,0.3536,0.3486,0.3468,0.3482,0.348,0.3523,0.3528,0.3544,0.361,0.3612,0.356,0.3563,0.3564,0.3566,0,0,0,0,0,0,0,0.3354,0.3364,0.3461,0.3438,0.3439,0.3435,0.3441,0.3485,0.3504,0.347,0.3469,0.3476,0.3523,0.354,0.3545,0.3613,0.356,0.3564,0.3566,0.3568,0.3731,0.3733,0,0,0,0,0,0,0.335,0.3361,0.3459,0.3462,0.3394,0.3439,0.3446,0.347,0.3504,0.3508,0.3478,0.3476,0.3534,0.354,0.3547,0.3619,0.3564,0.3568,0.357,0.3729,0.3731,0.3733,0,0,0,0,0,0,0.3347,0.3359,0.3456,0.3411,0.3423,0.3443,0.347,0.3472,0.3489,0.351,0.3513,0.3491,0.3533,0.3541,0.3592,0.362,0.357,0.3574,0.3727,0.373,0.3732,0.3762,0,0,0,0,0,0,0.3343,0.3358,0.3381,0.3412,0.3426,0.3502,0.3472,0.3475,0.3496,0.3494,0.3524,0.3527,0.3532,0.3587,0.3596,0.3625,0.3577,0.3724,0.3728,0.3731,0.3759,0.3766,0.3772,0,0,0,0,0,0.3339,0.3387,0.3383,0.3395,0.3456,0.3503,0.3511,0.3517,0.3499,0.3522,0.3536,0.3526,0.3616,0.3592,0.3603,0.3633,0.3722,0.3727,0.3731,0.3756,0.3764,0.3772,0,0,0,0,0,0,0.3357,0.3391,0.3387,0.3446,0.3472,0.3501,0.353,0.3526,0.3556,0.3553,0.3557,0.3564,0.3616,0.363,0.3602,0.3692,0.3666,0.3673,0.3681,0.369,0.3696,0.3691,0.358,0,0,0,0,0,0.3369,0.3405,0.3432,0.3482,0.3495,0.3511,0.3531,0.3534,0.356,0.3571,0.3588,0.3613,0.3647,0.3669,0.3702,0.3761,0.3767,0.3787,0.3794,0.3799,0.3804,0.3836,0.3845,0.3748,0.3748,0.3748,0,0,0.3391,0.3414,0.3437,0.3486,0.3507,0.3544,0.352,0.356,0.3587,0.3576,0.3626,0.364,0.3668,0.3723,0.3749,0.3736,0.3833,0.3804,0.3808,0.3811,0.3842,0.3851,0.3859,0.3751,0.375,0.375,0,0,0.3452,0.3474,0.3518,0.3539,0.3571,0.3581,0.3592,0.3621,0.363,0.3681,0.3674,0.3705,0.3764,0.3784,0.3802,0.3871,0.3863,0.3882,0.3915,0.3946,0.3954,0.3961,0.3985,0.3994,0.3887,0.3887,0.3887,0,0.3477,0.3533,0.3541,0.3582,0.3603,0.3597,0.3641,0.3661,0.3701,0.3715,0.3701,0.3775,0.3793,0.3853,0.387,0.3885,0.3896,0.3878,0.3953,0.3959,0.3966,0.3989,0.3998,0.3889,0.3889,0.3889,0.3889,0,0.3561,0.3601,0.3632,0.3673,0.3698,0.374,0.3753,0.3777,0.3777,0.3789,0.3839,0.3862,0.3898,0.3913,0.3913,0.3973,0.3964,0.3951,0.3925,0.3977,0.3999,0.4008,0.3892,0.3891,0.3891,0.389,0,0,0.3634,0.368,0.3691,0.3709,0.3744,0.3774,0.3816,0.3853,0.3874,0.3902,0.3936,0.3986,0.3974,0.3995,0.3997,0.4025,0.4078,0.4009,0.4009,0.402,0.4144,0.4153,0.4164,0.4073,0.4075,0.4076,0.4142,0,0.3698,0.3773,0.3781,0.3848,0.3884,0.3879,0.3915,0.394,0.3952,0.3983,0.3995,0.403,0.4013,0.4025,0.4052,0.4066,0.4103,0.4061,0.4104,0.4106,0.4097,0.4175,0.4185,0.4246,0.4151,0.4152,0.4153,0,0.3782,0.3814,0.3885,0.3915,0.393,0.3963,0.3998,0.4029,0.4056,0.4063,0.4086,0.4085,0.4127,0.41,0.4157,0.4129,0.4147,0.4156,0.4159,0.4162,0.4132,0.418,0.4265,0.4274,0.4167,0.4166,0.4165,0,0.3827,0.3888,0.3938,0.3954,0.3991,0.4014,0.403,0.4057,0.4079,0.4109,0.4123,0.4157,0.4176,0.4202,0.4209,0.4189,0.4266,0.424,0.4272,0.4272,0.4287,0.4286,0.4376,0.43,0.43,0.43,0.43,0,0.3897,0.394,0.3959,0.399,0.4038,0.4047,0.4093,0.4108,0.4132,0.4164,0.4162,0.4192,0.4202,0.4233,0.424,0.4286,0.4294,0.43,0.4301,0.43,0.4299,0.4311,0.4306,0.4302,0.4302,0.4301,0.4301,0,0.3955,0.397,0.4024,0.4055,0.4064,0.4098,0.4124,0.4153,0.4165,0.4206,0.4217,0.4235,0.4272,0.4283,0.4327,0.4331,0.4385,0.4383,0.4376,0.4376,0.4407,0.4404,0.4507,0.452,0.4437,0.4438,0.4438,0,0.3997,0.4031,0.4067,0.4089,0.4107,0.4143,0.4166,0.4176,0.42,0.4234,0.4259,0.4296,0.4327,0.4386,0.4402,0.4436,0.4434,0.4468,0.4439,0.4437,0.4434,0.4431,0.4434,0.4473,0.4474,0.4474,0.4475,0,0.4072,0.4078,0.4112,0.4149,0.4177,0.4206,0.4234,0.4253,0.4266,0.4293,0.4332,0.4356,0.4402,0.4439,0.4473,0.4488,0.4484,0.4484,0.4493,0.4492,0.4487,0.4489,0.439,0.4481,0.4481,0.448,0.448,0.448,0.4123,0.4152,0.4182,0.4221,0.4243,0.427,0.4299,0.4315,0.4349,0.4388,0.4392,0.4434,0.446,0.4507,0.4524,0.4556,0.4546,0.4559,0.4562,0.4565,0.4568,0.4483,0.4562,0.4562,0.4562,0.4562,0.4562,0,0.4196,0.4216,0.4251,0.4291,0.4321,0.4317,0.4348,0.4372,0.441,0.4436,0.4467,0.4512,0.4548,0.4567,0.4603,0.4625,0.4623,0.4633,0.4631,0.4635,0.4575,0.4563,0.4634,0.4634,0.4634,0.4634,0.4634,0.4634,0.4238,0.4287,0.4297,0.4358,0.4377,0.442,0.4438,0.4462,0.4483,0.4534,0.4565,0.4578,0.4601,0.4639,0.4671,0.4676,0.4689,0.47,0.4703,0.4647,0.4639,0.4632,0.4621,0.4703,0.4703,0.4761,0.4761,0.4761]},{"header":{"parameterUnit":"m.s-1","parameterCategory":1,"la1":30.2991,"la2":30.254,"lo1":-89.0895,"lo2":-89.0444,"dy":0.0017,"dx":0.0017,"nx":28,"ny":28,"refTime":"2024-06-16T09:00:00:Z","depth":0,"parameterNumber":3,"parameterNumberName":"V-component_of_WINDS"},"data":[0,0,0,0,0,0,0,0,0,0,0,0,0,0,0,0,0,0,0,0,0,0,0,0,0,0,0,0,0,0,0,0,0,0,0,0,0,0,0,0,0,0,0,0,0,0,0,0,0,0,0,0,0,0,0,0,0,0,7.5796,7.5796,0,7.5747,7.5747,7.5746,7.5654,7.5653,7.5651,7.5649,7.5601,7.5601,7.5601,0,0,0,0,0,0,0,0,0,0,0,0,0,7.5812,7.5813,7.5796,7.5796,7.5795,7.5748,7.5747,7.5746,7.5655,7.5653,7.565,7.5648,7.5601,7.5601,7.5601,0,0,0,0,0,0,0,0,0,0,0,0,0,7.5789,7.5813,7.5797,7.5744,7.5739,7.5748,7.5747,7.5746,7.5655,7.5652,7.565,7.5647,7.56,7.5601,7.5602,7.5659,0,0,7.5603,7.5604,0,0,0,0,0,0,0,0,7.579,7.5788,7.5752,7.5747,7.5742,7.5704,7.5735,7.5717,7.5656,7.5687,7.5649,7.5646,7.5637,7.5635,7.5632,7.5656,7.5654,7.5603,7.5604,7.5604,7.5604,0,0,0,0,0,0,0,7.5792,7.579,7.5777,7.5752,7.5745,7.5723,7.5717,7.5731,7.5678,7.5684,7.5677,7.5673,7.5634,7.5631,7.563,7.5654,7.5603,7.5604,7.5604,7.5604,7.5721,7.5724,0,0,0,0,0,0,7.5801,7.5792,7.5779,7.5776,7.576,7.5725,7.5718,7.5719,7.5677,7.5668,7.5675,7.5668,7.5632,7.5629,7.5628,7.569,7.5604,7.5604,7.5605,7.5719,7.5722,7.5725,0,0,0,0,0,0,7.5802,7.5801,7.5781,7.5782,7.5778,7.5728,7.573,7.5719,7.5716,7.5671,7.5661,7.5682,7.5629,7.5627,7.5651,7.5687,7.5605,7.5605,7.5715,7.572,7.5724,7.5817,0,0,0,0,0,0,7.5803,7.5802,7.5822,7.5783,7.5778,7.5805,7.5732,7.572,7.5717,7.5708,7.5674,7.5666,7.5627,7.5651,7.5652,7.5687,7.5606,7.5712,7.5717,7.5722,7.581,7.5824,7.5835,0,0,0,0,0,7.5804,7.5851,7.5824,7.5823,7.5803,7.5807,7.5804,7.5758,7.5721,7.5741,7.5712,7.5667,7.5684,7.5654,7.5654,7.569,7.5709,7.5716,7.5722,7.5805,7.5821,7.5835,0,0,0,0,0,0,7.5897,7.5845,7.5814,7.585,7.5834,7.5791,7.5816,7.5777,7.5771,7.5763,7.5706,7.5699,7.5731,7.5713,7.5681,7.5742,7.5689,7.5696,7.5752,7.5768,7.578,7.5783,7.5606,0,0,0,0,0,7.5921,7.5929,7.5884,7.592,7.5913,7.5866,7.5866,7.5832,7.5813,7.5806,7.5778,7.5761,7.5762,7.5764,7.5763,7.5808,7.5799,7.5833,7.5845,7.5856,7.5861,7.5883,7.5897,7.5746,7.5745,7.5745,0,0,7.5973,7.5945,7.5953,7.5938,7.5921,7.593,7.5861,7.5874,7.5879,7.5808,7.5828,7.5808,7.5785,7.582,7.5834,7.5806,7.5901,7.5864,7.5872,7.5872,7.589,7.5905,7.5918,7.575,7.5749,7.5748,0,0,7.607,7.605,7.6078,7.6062,7.6037,7.6006,7.6013,7.5976,7.5959,7.5979,7.5925,7.5932,7.5936,7.5922,7.5915,7.6008,7.5966,7.6009,7.6073,7.6095,7.6106,7.6117,7.6148,7.616,7.6015,7.6016,7.6016,0,7.6136,7.6147,7.6097,7.6113,7.6107,7.6042,7.607,7.6057,7.6034,7.6032,7.6001,7.6004,7.5984,7.6014,7.6036,7.6034,7.6039,7.6012,7.6109,7.6119,7.6127,7.6157,7.6169,7.6021,7.602,7.602,7.6019,0,7.6229,7.6238,7.6263,7.6241,7.6239,7.626,7.6214,7.6218,7.6185,7.6157,7.6177,7.6152,7.6144,7.6149,7.6117,7.6174,7.6157,7.6119,7.6064,7.6148,7.6174,7.6185,7.6029,7.6027,7.6025,7.6024,0,0,7.6382,7.6332,7.6342,7.6331,7.6299,7.6305,7.6324,7.6315,7.6319,7.6306,7.6319,7.6324,7.6288,7.6281,7.6247,7.6266,7.6339,7.6224,7.6223,7.6245,7.6398,7.6426,7.644,7.6312,7.6314,7.6315,7.6399,0,7.6471,7.6499,7.6455,7.6493,7.65,7.6439,7.6456,7.6438,7.6413,7.6415,7.6388,7.6391,7.6344,7.6339,7.6355,7.6326,7.6368,7.632,7.6323,7.6324,7.6328,7.6454,7.6483,7.6564,7.641,7.6411,7.6413,0,7.6577,7.6568,7.6607,7.6572,7.6573,7.6589,7.6577,7.658,7.6559,7.6539,7.6532,7.6491,7.6507,7.6456,7.6477,7.6445,7.6444,7.643,7.6432,7.6429,7.6372,7.6452,7.6589,7.66,7.6429,7.6428,7.6426,0,7.6682,7.668,7.6703,7.6695,7.6656,7.6668,7.6652,7.6628,7.6626,7.6616,7.6614,7.6607,7.6602,7.6598,7.6556,7.6523,7.6582,7.6527,7.6565,7.6566,7.6578,7.6578,7.6715,7.6582,7.6582,7.6581,7.6581,0,7.6785,7.6811,7.6749,7.6763,7.679,7.674,7.6769,7.6747,7.6726,7.6735,7.6683,7.6692,7.6637,7.6641,7.6609,7.663,7.6629,7.6613,7.6604,7.6616,7.6618,7.6613,7.6606,7.6584,7.6584,7.6583,7.6583,0,7.6906,7.6866,7.6886,7.6847,7.6838,7.686,7.6826,7.6837,7.6809,7.6821,7.682,7.6776,7.6777,7.6736,7.6729,7.6707,7.6742,7.6724,7.6749,7.6742,7.6782,7.6778,7.6919,7.6934,7.6793,7.6795,7.6796,0,7.6973,7.6991,7.6954,7.6956,7.6942,7.6946,7.6943,7.6895,7.6894,7.6871,7.6885,7.6882,7.6876,7.6881,7.6848,7.6843,7.6823,7.6873,7.6821,7.6833,7.6821,7.682,7.6821,7.6883,7.6884,7.6886,7.6887,0,7.7095,7.7074,7.7072,7.7063,7.7061,7.7051,7.7039,7.7043,7.699,7.6992,7.6992,7.6988,7.6981,7.6978,7.6966,7.695,7.691,7.6904,7.6912,7.6924,7.6937,7.6928,7.6776,7.69,7.6899,7.6898,7.6897,7.6897,7.719,7.7203,7.7178,7.7177,7.7163,7.7152,7.716,7.7133,7.7132,7.7122,7.7094,7.7099,7.7077,7.7056,7.7044,7.7047,7.7022,7.7034,7.7037,7.704,7.7047,7.6938,7.7045,7.7044,7.7044,7.7044,7.7043,0,7.7308,7.7289,7.7289,7.7272,7.7272,7.7234,7.7218,7.722,7.7224,7.7208,7.7203,7.7203,7.72,7.7168,7.7161,7.7169,7.715,7.7169,7.7167,7.7163,7.707,7.7063,7.7184,7.7184,7.7184,7.7184,7.7184,7.7184,7.7369,7.7388,7.7365,7.7377,7.7358,7.7362,7.7356,7.7346,7.7332,7.7334,7.7331,7.731,7.7286,7.7277,7.7272,7.7263,7.7262,7.7286,7.727,7.7184,7.717,7.7157,7.715,7.7287,7.7287,7.7363,7.7363,7.7364]}]]